PKVRU WADD-WARR

Flight info

Callsign PKVRU
Flight time 0h 53m
Altitude 22000
Route OKANG
Aircraft B738/M-SDE2E3FGHIRWXY/LB1

Departure

Time 2026-05-06 10:25
Airport Denpasar I Gusti Ngurah Rai International Airport (WADD)

Arrival

Time 2026-05-06 11:19
Airport Juanda International Airport (WARR)
Time Latitude Longitude Altitude Speed Heading
2026-05-06 09:58 -8.75072 115.16843 30 ft 0 kts 177°
2026-05-06 10:15 -8.75080 115.16844 32 ft 4 kts 172°
2026-05-06 10:16 -8.75073 115.16840 32 ft 4 kts 102°
2026-05-06 10:16 -8.75073 115.16837 32 ft 4 kts 103°
2026-05-06 10:16 -8.75080 115.16831 30 ft 4 kts 198°
2026-05-06 10:16 -8.75056 115.16839 32 ft 4 kts 193°
2026-05-06 10:17 -8.75031 115.16841 30 ft 4 kts 184°
2026-05-06 10:17 -8.75009 115.16848 30 ft 4 kts 230°
2026-05-06 10:17 -8.75001 115.16870 32 ft 4 kts 269°
2026-05-06 10:17 -8.75001 115.16896 31 ft 2 kts 268°
2026-05-06 10:18 -8.75001 115.16897 31 ft 0 kts 268°
2026-05-06 10:21 -8.75003 115.16854 31 ft 16 kts 267°
2026-05-06 10:21 -8.75009 115.16694 32 ft 25 kts 268°
2026-05-06 10:21 -8.75012 115.16523 31 ft 23 kts 282°
2026-05-06 10:21 -8.74877 115.16464 28 ft 23 kts 331°
2026-05-06 10:22 -8.74797 115.16333 29 ft 22 kts 294°
2026-05-06 10:22 -8.74709 115.16266 30 ft 13 kts 304°
2026-05-06 10:22 -8.74702 115.16178 32 ft 13 kts 267°
2026-05-06 10:22 -8.74705 115.16090 32 ft 12 kts 269°
2026-05-06 10:23 -8.74710 115.15983 32 ft 21 kts 267°
2026-05-06 10:23 -8.74717 115.15795 32 ft 30 kts 268°
2026-05-06 10:23 -8.74725 115.15582 32 ft 30 kts 268°
2026-05-06 10:23 -8.74748 115.15407 30 ft 16 kts 229°
2026-05-06 10:24 -8.74836 115.15392 27 ft 12 kts 179°
2026-05-06 10:24 -8.74892 115.15404 28 ft 1 kts 121°
2026-05-06 10:24 -8.74896 115.15432 28 ft 9 kts 91°
2026-05-06 10:24 -8.74896 115.15452 28 ft 0 kts 87°
2026-05-06 10:25 -8.74896 115.15454 28 ft 5 kts 87°
2026-05-06 10:25 -8.74884 115.15776 27 ft 87 kts 89°
2026-05-06 10:25 -8.74849 115.16626 94 ft 147 kts 89°
2026-05-06 10:25 -8.74802 115.17698 768 ft 155 kts 90°
2026-05-06 10:26 -8.74756 115.18745 1766 ft 142 kts 91°
2026-05-06 10:26 -8.74717 115.19770 2482 ft 155 kts 90°
2026-05-06 10:26 -8.74672 115.20985 2794 ft 189 kts 89°
2026-05-06 10:26 -8.74618 115.22411 3029 ft 217 kts 89°
2026-05-06 10:27 -8.74554 115.24004 3390 ft 234 kts 89°
2026-05-06 10:27 -8.74481 115.25702 3823 ft 254 kts 86°
2026-05-06 10:27 -8.73884 115.27403 4462 ft 267 kts 54°
2026-05-06 10:27 -8.72463 115.28571 5477 ft 261 kts 25°
2026-05-06 10:28 -8.70758 115.28952 6760 ft 247 kts
2026-05-06 10:28 -8.69075 115.28591 7623 ft 253 kts 337°
2026-05-06 10:28 -8.67628 115.27535 8380 ft 263 kts 314°
2026-05-06 10:28 -8.66444 115.26111 9216 ft 268 kts 309°
2026-05-06 10:29 -8.65286 115.24608 10026 ft 273 kts 308°
2026-05-06 10:29 -8.64125 115.23076 10874 ft 275 kts 308°
2026-05-06 10:29 -8.62958 115.21536 11742 ft 278 kts 307°
2026-05-06 10:29 -8.61771 115.19977 12611 ft 280 kts 307°
2026-05-06 10:30 -8.60575 115.18409 13495 ft 284 kts 306°
2026-05-06 10:30 -8.59367 115.16834 14443 ft 281 kts 306°
2026-05-06 10:30 -8.58180 115.15288 15430 ft 277 kts 306°
2026-05-06 10:30 -8.56985 115.13736 16253 ft 282 kts 306°
2026-05-06 10:31 -8.55774 115.12164 17095 ft 285 kts 306°
2026-05-06 10:31 -8.54554 115.10582 17976 ft 286 kts 306°
2026-05-06 10:31 -8.53324 115.08989 18773 ft 286 kts 306°
2026-05-06 10:31 -8.52100 115.07405 19572 ft 287 kts 307°
2026-05-06 10:32 -8.50864 115.05805 20268 ft 291 kts 307°
2026-05-06 10:32 -8.49610 115.04181 20972 ft 295 kts 307°
2026-05-06 10:32 -8.48341 115.02539 21670 ft 299 kts 307°
2026-05-06 10:32 -8.47071 115.00898 22579 ft 292 kts 307°
2026-05-06 10:33 -8.46245 114.99829 23147 ft 291 kts 307°
2026-05-06 10:33 -8.44991 114.98209 23696 ft 296 kts 307°
2026-05-06 10:33 -8.43724 114.96570 23834 ft 296 kts 307°
2026-05-06 10:33 -8.42458 114.94934 23868 ft 295 kts 307°
2026-05-06 10:34 -8.41185 114.93290 23882 ft 299 kts 307°
2026-05-06 10:34 -8.39484 114.91091 23893 ft 301 kts 307°
2026-05-06 10:34 -8.38613 114.89965 23896 ft 301 kts 307°
2026-05-06 10:34 -8.37319 114.88294 23890 ft 303 kts 307°
2026-05-06 10:35 -8.36022 114.86618 23890 ft 303 kts 307°
2026-05-06 10:35 -8.34724 114.84941 23885 ft 303 kts 307°
2026-05-06 10:35 -8.33425 114.83264 23883 ft 303 kts 307°
2026-05-06 10:35 -8.32126 114.81588 23877 ft 302 kts 307°
2026-05-06 10:36 -8.30833 114.79918 23871 ft 301 kts 307°
2026-05-06 10:36 -8.29562 114.78277 23868 ft 300 kts 307°
2026-05-06 10:36 -8.28276 114.76618 23870 ft 300 kts 307°
2026-05-06 10:36 -8.26977 114.74942 23871 ft 299 kts 307°
2026-05-06 10:37 -8.25699 114.73292 23868 ft 298 kts 307°
2026-05-06 10:37 -8.24422 114.71644 23874 ft 297 kts 307°
2026-05-06 10:37 -8.23147 114.69999 23869 ft 297 kts 307°
2026-05-06 10:37 -8.21891 114.68380 23871 ft 297 kts 307°
2026-05-06 10:38 -8.20618 114.66738 23865 ft 297 kts 307°
2026-05-06 10:38 -8.19346 114.65097 23871 ft 297 kts 307°
2026-05-06 10:38 -8.18069 114.63451 23874 ft 298 kts 307°
2026-05-06 10:38 -8.16789 114.61801 23874 ft 299 kts 308°
2026-05-06 10:39 -8.15509 114.60149 23872 ft 299 kts 308°
2026-05-06 10:39 -8.14222 114.58490 23876 ft 300 kts 308°
2026-05-06 10:39 -8.12933 114.56829 23874 ft 301 kts 307°
2026-05-06 10:39 -8.11641 114.55164 23872 ft 302 kts 308°
2026-05-06 10:40 -8.10347 114.53497 23875 ft 302 kts 308°
2026-05-06 10:40 -8.09057 114.51832 23879 ft 302 kts 306°
2026-05-06 10:40 -8.08125 114.49940 23867 ft 301 kts 281°
2026-05-06 10:40 -8.07849 114.47858 23883 ft 300 kts 275°
2026-05-06 10:41 -8.07674 114.45760 23885 ft 301 kts 274°
2026-05-06 10:41 -8.07510 114.43655 23886 ft 301 kts 274°
2026-05-06 10:41 -8.07336 114.41549 23887 ft 302 kts 274°
2026-05-06 10:41 -8.07151 114.39438 23888 ft 302 kts 275°
2026-05-06 10:42 -8.06956 114.37327 23889 ft 302 kts 275°
2026-05-06 10:42 -8.06755 114.35216 23888 ft 302 kts 275°
2026-05-06 10:42 -8.06552 114.33130 23892 ft 302 kts 275°
2026-05-06 10:42 -8.06343 114.31018 23893 ft 302 kts 275°
2026-05-06 10:43 -8.06132 114.28912 23895 ft 302 kts 275°
2026-05-06 10:43 -8.05921 114.26803 23898 ft 302 kts 275°
2026-05-06 10:43 -8.05708 114.24693 23899 ft 302 kts 275°
2026-05-06 10:44 -8.05284 114.20500 23896 ft 302 kts 275°
2026-05-06 10:44 -8.05071 114.18396 23898 ft 301 kts 275°
2026-05-06 10:44 -8.04858 114.16293 23900 ft 301 kts 275°
2026-05-06 10:44 -8.04645 114.14190 23900 ft 301 kts 276°
2026-05-06 10:45 -8.04432 114.12092 23901 ft 301 kts 275°
2026-05-06 10:45 -8.04219 114.09992 23900 ft 301 kts 276°
2026-05-06 10:45 -8.04005 114.07890 23901 ft 301 kts 276°
2026-05-06 10:45 -8.03792 114.05792 23903 ft 301 kts 276°
2026-05-06 10:46 -8.03579 114.03693 23904 ft 301 kts 276°
2026-05-06 10:46 -8.03365 114.01592 23906 ft 301 kts 276°
2026-05-06 10:46 -8.03151 113.99490 23908 ft 301 kts 275°
2026-05-06 10:46 -8.02937 113.97386 23902 ft 302 kts 275°
2026-05-06 10:47 -8.02722 113.95280 23901 ft 302 kts 275°
2026-05-06 10:47 -8.02508 113.93174 23904 ft 302 kts 276°
2026-05-06 10:47 -8.02293 113.91066 23902 ft 302 kts 276°
2026-05-06 10:47 -8.01966 113.88976 23889 ft 303 kts 288°
2026-05-06 10:48 -8.01205 113.87001 23911 ft 302 kts 293°
2026-05-06 10:48 -8.00374 113.85053 23902 ft 302 kts 293°
2026-05-06 10:48 -7.99538 113.83106 23900 ft 303 kts 293°
2026-05-06 10:48 -7.98721 113.81176 23900 ft 303 kts 293°
2026-05-06 10:49 -7.97901 113.79215 23895 ft 304 kts 293°
2026-05-06 10:49 -7.97085 113.77248 23901 ft 304 kts 292°
2026-05-06 10:49 -7.96271 113.75277 23894 ft 305 kts 292°
2026-05-06 10:49 -7.95459 113.73304 23897 ft 305 kts 292°
2026-05-06 10:50 -7.94646 113.71326 23891 ft 305 kts 292°
2026-05-06 10:50 -7.93831 113.69345 23893 ft 306 kts 292°
2026-05-06 10:50 -7.92983 113.67382 23886 ft 306 kts 298°
2026-05-06 10:50 -7.91903 113.65538 23896 ft 305 kts 303°
2026-05-06 10:51 -7.90722 113.63754 23892 ft 306 kts 304°
2026-05-06 10:51 -7.89525 113.61987 23887 ft 306 kts 304°
2026-05-06 10:51 -7.88330 113.60212 23885 ft 306 kts 304°
2026-05-06 10:51 -7.87144 113.58433 23880 ft 306 kts 304°
2026-05-06 10:52 -7.85964 113.56646 23881 ft 306 kts 304°
2026-05-06 10:52 -7.84792 113.54860 23882 ft 305 kts 304°
2026-05-06 10:52 -7.83625 113.53075 23877 ft 305 kts 304°
2026-05-06 10:52 -7.82459 113.51286 23877 ft 305 kts 303°
2026-05-06 10:53 -7.81294 113.49498 23881 ft 305 kts 303°
2026-05-06 10:53 -7.80132 113.47713 23875 ft 305 kts 303°
2026-05-06 10:53 -7.78970 113.45926 23877 ft 304 kts 303°
2026-05-06 10:53 -7.77809 113.44139 23874 ft 305 kts 303°
2026-05-06 10:54 -7.76649 113.42355 23870 ft 304 kts 304°
2026-05-06 10:54 -7.75487 113.40567 23825 ft 306 kts 304°
2026-05-06 10:54 -7.74305 113.38750 23537 ft 311 kts 304°
2026-05-06 10:54 -7.73105 113.36905 23071 ft 318 kts 304°
2026-05-06 10:55 -7.71885 113.35030 22601 ft 322 kts 303°
2026-05-06 10:55 -7.70668 113.33158 22129 ft 325 kts 303°
2026-05-06 10:55 -7.69421 113.31240 21642 ft 329 kts 303°
2026-05-06 10:55 -7.68157 113.29297 21145 ft 333 kts 303°
2026-05-06 10:56 -7.66879 113.27334 20651 ft 337 kts 303°
2026-05-06 10:56 -7.65622 113.25319 20114 ft 342 kts 296°
2026-05-06 10:56 -7.64907 113.23033 19601 ft 344 kts 282°
2026-05-06 10:56 -7.64436 113.20649 19052 ft 349 kts 280°
2026-05-06 10:57 -7.63998 113.18246 18516 ft 350 kts 280°
2026-05-06 10:57 -7.63553 113.15806 17948 ft 357 kts 280°
2026-05-06 10:57 -7.63093 113.13328 17344 ft 362 kts 280°
2026-05-06 10:57 -7.62612 113.10788 16778 ft 379 kts 280°
2026-05-06 10:58 -7.62101 113.08127 16181 ft 389 kts 280°
2026-05-06 10:58 -7.61581 113.05453 15566 ft 388 kts 280°
2026-05-06 10:58 -7.61062 113.02796 14956 ft 385 kts 280°
2026-05-06 10:58 -7.60543 113.00150 14349 ft 383 kts 280°
2026-05-06 10:59 -7.60028 112.97520 13852 ft 379 kts 280°
2026-05-06 10:59 -7.59528 112.94970 13667 ft 365 kts 280°
2026-05-06 10:59 -7.59045 112.92503 13492 ft 352 kts 280°
2026-05-06 10:59 -7.58579 112.90125 13323 ft 340 kts 280°
2026-05-06 11:00 -7.58130 112.87827 13173 ft 329 kts 280°
2026-05-06 11:00 -7.57694 112.85603 13035 ft 318 kts 280°
2026-05-06 11:00 -7.57272 112.83452 12904 ft 309 kts 280°
2026-05-06 11:00 -7.56863 112.81363 12839 ft 299 kts 280°
2026-05-06 11:01 -7.56465 112.79321 12845 ft 296 kts 280°
2026-05-06 11:01 -7.56071 112.77296 12838 ft 293 kts 280°
2026-05-06 11:01 -7.55679 112.75279 12845 ft 294 kts 280°
2026-05-06 11:01 -7.55286 112.73256 12850 ft 295 kts 280°
2026-05-06 11:02 -7.54892 112.71233 12844 ft 295 kts 280°
2026-05-06 11:02 -7.54496 112.69200 12844 ft 295 kts 280°
2026-05-06 11:02 -7.54098 112.67161 12703 ft 300 kts 281°
2026-05-06 11:02 -7.53691 112.65088 12423 ft 303 kts 281°
2026-05-06 11:03 -7.53283 112.63012 12193 ft 299 kts 281°
2026-05-06 11:03 -7.52889 112.61010 12019 ft 293 kts 281°
2026-05-06 11:03 -7.52495 112.59006 11776 ft 290 kts 281°
2026-05-06 11:03 -7.52106 112.57024 11544 ft 287 kts 281°
2026-05-06 11:04 -7.51718 112.55051 11300 ft 287 kts 281°
2026-05-06 11:04 -7.51332 112.53088 11053 ft 286 kts 281°
2026-05-06 11:04 -7.50946 112.51125 10818 ft 285 kts 281°
2026-05-06 11:04 -7.50560 112.49162 10564 ft 285 kts 281°
2026-05-06 11:05 -7.50176 112.47206 10317 ft 285 kts 281°
2026-05-06 11:05 -7.49793 112.45256 10067 ft 284 kts 281°
2026-05-06 11:05 -7.49408 112.43298 9813 ft 284 kts 282°
2026-05-06 11:05 -7.49026 112.41355 9551 ft 282 kts 282°
2026-05-06 11:06 -7.48647 112.39425 9280 ft 279 kts 281°
2026-05-06 11:06 -7.48272 112.37516 9024 ft 276 kts 282°
2026-05-06 11:06 -7.47899 112.35624 8772 ft 275 kts 281°
2026-05-06 11:06 -7.47528 112.33739 8540 ft 274 kts 282°
2026-05-06 11:07 -7.46816 112.31984 8277 ft 272 kts 308°
2026-05-06 11:07 -7.45385 112.30781 8055 ft 268 kts 336°
2026-05-06 11:07 -7.43597 112.30362 7826 ft 264 kts
2026-05-06 11:07 -7.41787 112.30562 7618 ft 261 kts 11°
2026-05-06 11:08 -7.39995 112.30878 7372 ft 262 kts 11°
2026-05-06 11:08 -7.38202 112.31193 7139 ft 262 kts 11°
2026-05-06 11:08 -7.38136 112.31204 7133 ft 262 kts 11°
2026-05-06 11:08 -7.38076 112.31214 7130 ft 262 kts 11°
2026-05-06 11:09 -7.36280 112.31518 6897 ft 263 kts 11°
2026-05-06 11:09 -7.34473 112.31819 6665 ft 263 kts 11°
2026-05-06 11:09 -7.32682 112.32188 6416 ft 262 kts 23°
2026-05-06 11:09 -7.31217 112.33225 6177 ft 258 kts 52°
2026-05-06 11:10 -7.30448 112.34821 5955 ft 254 kts 79°
2026-05-06 11:10 -7.30402 112.36543 5743 ft 250 kts 98°
2026-05-06 11:10 -7.30713 112.38292 5520 ft 249 kts 102°
2026-05-06 11:10 -7.31078 112.39976 5296 ft 249 kts 103°
2026-05-06 11:11 -7.31449 112.41677 5075 ft 249 kts 102°
2026-05-06 11:11 -7.31812 112.43378 4852 ft 248 kts 102°
2026-05-06 11:11 -7.32167 112.45074 4648 ft 247 kts 102°
2026-05-06 11:11 -7.32514 112.46762 4408 ft 246 kts 102°
2026-05-06 11:12 -7.32895 112.48433 4190 ft 244 kts 104°
2026-05-06 11:12 -7.33299 112.50082 3983 ft 242 kts 102°
2026-05-06 11:12 -7.33621 112.51733 3759 ft 237 kts 100°
2026-05-06 11:12 -7.33890 112.53333 3540 ft 226 kts 99°
2026-05-06 11:13 -7.34135 112.54855 3371 ft 215 kts 99°
2026-05-06 11:13 -7.34368 112.56300 3227 ft 202 kts 98°
2026-05-06 11:13 -7.34584 112.57644 3069 ft 188 kts 99°
2026-05-06 11:13 -7.34786 112.58898 2920 ft 176 kts 99°
2026-05-06 11:14 -7.34983 112.60090 2791 ft 167 kts 99°
2026-05-06 11:14 -7.35167 112.61208 2648 ft 156 kts 99°
2026-05-06 11:14 -7.35342 112.62282 2544 ft 156 kts 99°
2026-05-06 11:14 -7.35517 112.63367 2429 ft 158 kts 98°
2026-05-06 11:15 -7.35692 112.64456 2314 ft 156 kts 98°
2026-05-06 11:15 -7.35864 112.65526 2221 ft 157 kts 99°
2026-05-06 11:15 -7.36038 112.66610 2035 ft 156 kts 99°
2026-05-06 11:15 -7.36211 112.67685 1841 ft 153 kts 98°
2026-05-06 11:16 -7.36372 112.68685 1640 ft 138 kts 98°
2026-05-06 11:16 -7.36519 112.69600 1464 ft 129 kts 98°
2026-05-06 11:16 -7.36663 112.70495 1313 ft 131 kts 99°
2026-05-06 11:16 -7.36811 112.71410 1141 ft 133 kts 99°
2026-05-06 11:17 -7.36957 112.72320 966 ft 130 kts 98°
2026-05-06 11:17 -7.37102 112.73222 811 ft 130 kts 100°
2026-05-06 11:17 -7.37250 112.74133 662 ft 132 kts 99°
2026-05-06 11:17 -7.37398 112.75052 492 ft 133 kts 97°
2026-05-06 11:18 -7.37542 112.75952 328 ft 127 kts 98°
2026-05-06 11:18 -7.37684 112.76843 161 ft 133 kts 99°
2026-05-06 11:18 -7.37828 112.77757 27 ft 130 kts 100°
2026-05-06 11:18 -7.37966 112.78578 10 ft 105 kts 99°
2026-05-06 11:19 -7.38063 112.79184 10 ft 70 kts 99°
2026-05-06 11:19 -7.38124 112.79551 10 ft 37 kts 99°
2026-05-06 11:19 -7.38163 112.79795 6 ft 34 kts 99°
2026-05-06 11:19 -7.38215 112.79991 6 ft 23 kts 127°
2026-05-06 11:20 -7.38352 112.80045 8 ft 22 kts 205°
2026-05-06 11:20 -7.38372 112.79908 8 ft 21 kts 279°
2026-05-06 11:20 -7.38349 112.79766 8 ft 20 kts 279°
2026-05-06 11:20 -7.38326 112.79628 8 ft 20 kts 279°
2026-05-06 11:21 -7.38305 112.79495 8 ft 19 kts 279°
2026-05-06 11:21 -7.38291 112.79385 8 ft 13 kts 260°
2026-05-06 11:21 -7.38359 112.79342 8 ft 12 kts 189°
2026-05-06 11:21 -7.38443 112.79328 8 ft 12 kts 191°
2026-05-06 11:22 -7.38509 112.79279 9 ft 12 kts 233°
2026-05-06 11:22 -7.38538 112.79201 8 ft 12 kts 255°
2026-05-06 11:22 -7.38552 112.79119 8 ft 12 kts 264°
2026-05-06 11:22 -7.38561 112.79021 8 ft 16 kts 252°
2026-05-06 11:23 -7.38583 112.78925 8 ft 4 kts 278°